Regional Weather Roundup
Issued by NWS Jackson, KY

Home | Current Version | Previous Version | Text Only | Print | Product List | Glossary On
Versions: 1 2 3 4 5 6 7 8 9 10 11 12 13 14 15 16 17 18 19 20 21 22 23 24 25 26 27 28 29 30 31 32 33 34 35 36 37 38 39 40 41 42 43 44 45 46 47 48 49 50
000
ASUS43 KJKL 231919
RWRJKL

EAST KENTUCKY HOURLY WEATHER ROUNDUP
NATIONAL WEATHER SERVICE JACKSON KY
300 PM EDT THU OCT 23 2014

NOTE: "FAIR" INDICATES FEW OR NO CLOUDS BELOW 12,000 FEET WITH
NO SIGNIFICANT WEATHER AND/OR OBSTRUCTIONS TO VISIBILITY.

* THESE REPORTS ARE NOT UNDER NWS QUALITY CONTROL AND MAY NOT
  REPORT WEATHER SUCH AS PRECIPITATION AND FOG.

KYZ079-080-083-085-087-088-110-112-115-119-120-232000
...EASTERN KENTUCKY...

CITY           SKY/WX    TMP DP  RH WIND       PRES   REMARKS
JACKSON        SUNNY     59  39  47 CALM      30.15F
LONDON         SUNNY     62  39  42 N8        30.14F
SOMERSET*      SUNNY     59  39  47 CALM      30.16F
MONTICELLO*    SUNNY     62  43  49 VRB5      30.16F
MIDDLESBORO*   SUNNY     62  40  44 NW3       30.13F
HARLAN APT*    CLEAR     59  37  44 CALM      30.13F
BLACK MTN*       N/A     50  39  66 NE6         N/A
PIKEVILLE APT* CLOUDY    52  41  66 CALM      30.16F
BIG SANDY*     CLOUDY    55  42  62 NE3       30.17S
MOREHEAD APT*  CLEAR     59  39  47 CALM      30.17F
ASHLAND*       PTSUNNY   61  39  44 NW5       30.14F
$$

KYZ035-036-041-042-044-050-067-078-099-232000
...CENTRAL KENTUCKY...

CITY           SKY/WX    TMP DP  RH WIND       PRES   REMARKS
MT STERLING*   SUNNY     59  43  55 NE3       30.18F
FLEMING/MASON* SUNNY     57  43  58 SE3       30.17F
DANVILLE*      SUNNY     57  43  58 N5        30.18F
RICHMOND*      SUNNY     59  41  51 NE3       30.16F
LEXINGTON      SUNNY     61  42  49 NW7       30.17F
FRANKFORT      SUNNY     59  40  49 E5        30.17F
$$

KYZ091>093-OHZ055-061-077-WVZ005-015-034-035-042-232000
...SOUTHERN OHIO/WEST VIRGINIA...

CITY           SKY/WX    TMP DP  RH WIND       PRES   REMARKS
COLUMBUS       MOSUNNY   57  42  57 N7        30.16F
DAYTON         MOSUNNY   61  41  47 CALM      30.18F
WILMINGTON     SUNNY     59  40  49 CALM      30.16F
HUNTINGTON     MOSUNNY   58  42  55 CALM      30.16F
CHARLESTON     PTSUNNY   56  43  61 NW7       30.14F
PINEVILLE*     CLOUDY    54  45  69 MISG      30.18F
BECKLEY        CLOUDY    48  39  71 NW12      30.12F
BLUEFIELD      CLOUDY    50  38  63 NW9       30.12F
$$

VAZ002-007-008-TNZ017-027-036-066-071-232000
...SOUTHWEST VIRGINIA/EAST TENNESSEE...

CITY           SKY/WX    TMP DP  RH WIND       PRES   REMARKS
WISE*          MOSUNNY   52  37  58 N10       30.15F
JONESVILLE*    CLEAR     59  39  47 CALM      30.15F
ABINGDON*      PTSUNNY   55  40  57 NE6       30.12F
BRISTOL        MOSUNNY   57  40  52 VRB6      30.13F
KNOXVILLE      MOSUNNY   62  42  47 N12       30.10F
OAK RIDGE      SUNNY     62  41  46 NE9       30.13F
CROSSVILLE     SUNNY     63  39  41 VRB3      30.12F
NASHVILLE      PTSUNNY   64  41  42 NE3       30.15F
$$

...KEY TO REMARKS...
VSB - VISIBILITY IN MILES
WCI - WIND CHILL INDEX
HX  - HEAT INDEX

$$



USA.gov is the U.S. government's official web portal to all federal, state and local government web resources and services.